GFSNW_sfc_dewp_120.txt.gz
Dewpoint
52 51 50 50 50 49 46 42 35 44 45 34 33 31 27 31 31 34 33 30 29 25 24 24 23 24 28 28 31 27 27 27 23 22 22 25 33 30 29 28 26 27 28 28
51 50 50 49 48 47 46 38 39 45 44 31 31 29 28 28 27 30 30 27 29 29 26 23 23 25 27 30 28 28 27 22 22 21 22 25 29 30 28 27 29 29 27 29
49 50 49 48 45 44 40 37 34 38 41 33 29 27 26 24 30 28 29 28 28 25 25 24 22 22 28 30 30 31 25 22 21 20 23 26 29 29 30 28 29 28 30 31
50 49 48 48 48 43 36 33 33 33 32 29 30 27 27 25 24 28 29 26 26 26 23 26 25 25 27 28 30 26 22 24 23 24 24 25 29 30 31 31 31 29 30 30
49 49 50 49 47 42 34 29 32 30 29 30 29 23 27 26 27 26 26 25 29 28 27 27 25 29 27 27 29 28 28 25 24 21 25 25 27 29 29 30 32 30 29 29
49 48 50 47 45 42 34 32 30 29 28 29 26 24 27 27 27 26 27 28 28 27 29 31 32 32 29 29 28 27 28 26 24 23 25 23 23 31 33 34 34 33 32 34
50 48 49 48 45 40 34 32 28 25 24 27 24 21 22 25 25 26 27 28 28 30 32 34 34 32 29 29 29 31 29 28 27 27 22 19 27 33 34 35 36 36 34 34
49 48 47 47 44 41 36 34 28 26 25 23 20 21 24 24 24 24 26 27 29 31 33 28 24 25 28 26 28 29 31 28 25 24 23 25 27 30 30 30 34 36 35 35
50 48 47 46 45 39 38 36 32 27 23 20 21 21 22 24 23 24 26 29 30 34 33 29 24 23 23 23 24 29 30 30 27 24 20 16 26 32 34 34 27 36 35 35
50 50 49 47 47 44 39 36 34 29 23 25 22 20 22 22 23 24 26 29 30 33 31 29 25 22 26 22 22 22 24 25 23 22 23 23 28 34 35 24 28 36 37 37
48 48 48 47 45 45 38 35 35 31 27 28 29 27 23 23 24 24 26 30 31 31 29 26 24 22 25 25 25 25 23 25 25 25 22 19 34 34 29 34 37 38 39 39
46 49 49 47 46 46 36 33 34 33 31 29 31 31 31 30 26 26 29 29 31 34 29 26 25 22 24 24 21 27 24 25 24 25 23 32 36 36 38 38 39 38 39 39
47 45 49 48 47 47 38 34 35 32 28 28 28 28 30 32 33 33 30 31 31 31 31 29 27 24 24 22 23 25 27 28 27 27 30 34 35 38 39 39 39 39 39 40
47 46 48 48 47 46 37 35 35 31 27 22 25 30 30 32 32 33 32 31 32 32 32 31 30 26 27 24 24 26 26 28 28 28 30 34 35 36 37 39 39 39 39 39
47 47 49 48 47 44 39 38 36 34 28 22 26 29 31 30 31 32 32 32 31 32 30 29 29 31 30 29 28 26 27 27 26 24 29 31 33 36 37 37 37 38 38 38
46 49 49 48 47 40 34 32 37 38 35 31 25 29 30 30 30 29 29 30 30 30 30 28 29 29 30 28 25 26 27 29 29 29 33 33 35 35 36 36 36 37 37 37
46 48 48 48 45 40 34 30 36 38 35 30 27 26 30 30 30 31 30 30 29 29 29 28 28 29 32 29 25 24 27 30 32 34 35 34 35 35 34 35 36 36 36 36
46 46 49 48 43 40 36 37 40 37 30 28 27 25 27 30 28 27 31 29 29 28 26 28 27 29 30 28 27 25 31 33 33 34 33 34 35 34 34 36 35 35 35 34
46 45 47 42 39 36 36 41 40 38 32 29 26 23 23 29 28 29 30 30 25 30 26 25 27 25 26 25 25 27 32 33 32 32 32 33 33 33 33 32 32 32 31 32
46 42 38 33 37 40 41 36 33 33 32 29 25 25 25 28 27 27 28 29 27 25 25 28 26 24 26 25 26 27 33 33 32 31 31 31 32 32 32 31 31 31 30 30
40 35 34 39 41 38 35 31 28 28 26 27 25 26 25 28 25 26 27 26 26 22 24 25 25 24 25 26 27 29 33 32 33 31 31 31 31 31 30 29 28 28 27 26
38 38 39 39 35 33 30 28 26 24 23 26 26 26 27 27 29 27 26 24 23 20 26 25 22 24 24 26 27 29 31 31 31 31 31 30 28 27 26 25 25 24 25 26
39 35 32 32 32 26 25 22 22 21 26 27 27 26 27 28 28 26 23 22 21 25 24 21 20 22 25 28 29 30 31 31 30 28 27 26 24 23 22 21 22 24 24 25
34 31 26 28 26 27 28 26 26 27 28 27 28 27 27 26 26 24 21 21 24 22 20 20 23 24 27 29 30 30 29 29 27 24 21 20 20 21 22 24 24 24 24 24
31 32 27 27 29 27 27 26 27 28 29 28 27 27 26 25 23 22 22 20 20 20 21 26 25 27 28 29 29 29 28 25 23 23 23 24 23 24 24 24 24 24 25 25
33 32 29 27 28 27 26 26 27 30 29 28 29 25 22 22 22 21 19 18 16 23 27 28 27 29 29 29 28 27 24 21 21 22 23 23 24 24 24 24 24 23 24 25
31 29 28 28 28 30 29 27 28 29 25 26 24 20 20 20 19 18 21 20 27 26 24 24 29 29 29 27 25 24 22 22 23 23 24 24 23 23 22 22 23 25 25 25

GFSNW_sfc_dewp_123.txt.gz
Dewpoint
53 51 50 51 48 48 46 42 35 44 45 35 33 31 28 30 28 32 29 28 26 22 21 24 25 28 30 27 28 25 25 26 24 23 26 29 34 32 28 28 28 31 29 27
50 50 51 51 50 48 43 38 39 43 44 33 30 28 26 27 27 28 26 26 27 26 23 24 21 23 24 27 26 25 25 24 24 25 24 26 33 32 31 31 33 29 26 27
50 50 51 50 48 45 41 36 35 38 39 32 27 25 25 24 29 27 27 26 26 23 23 22 21 20 28 29 29 31 27 23 22 22 25 31 31 31 31 31 30 28 29 31
49 50 51 49 48 45 38 34 34 33 32 28 29 29 26 24 24 26 27 25 25 25 23 22 21 24 26 27 30 25 25 23 23 24 27 32 29 30 30 32 34 30 32 32
49 49 51 51 49 45 35 31 32 31 28 28 28 26 26 25 26 26 25 25 26 26 25 25 24 26 25 25 29 32 29 23 23 21 24 25 27 30 31 33 32 30 30 33
50 49 50 50 49 43 33 33 32 28 29 28 25 24 27 27 27 28 28 27 27 26 29 29 29 28 28 29 29 28 29 27 24 25 23 22 22 29 32 32 33 33 33 33
50 49 50 49 47 41 34 32 30 26 24 26 26 24 26 27 27 27 27 28 27 30 32 34 32 29 28 28 27 30 29 27 25 27 22 20 26 31 33 34 33 33 33 32
49 48 48 46 45 43 36 33 30 26 23 25 22 23 24 26 26 27 27 28 30 33 33 28 26 24 25 25 26 26 29 27 26 25 23 23 27 29 29 29 30 33 33 33
49 48 47 47 47 45 38 37 34 30 25 23 23 23 25 24 24 27 28 30 32 34 31 27 24 23 22 22 23 26 27 27 26 24 21 17 25 32 34 33 26 34 34 35
49 48 48 47 46 43 40 37 36 32 23 24 22 21 23 25 25 26 28 29 30 34 29 27 25 21 25 21 20 21 23 25 23 23 23 21 28 33 34 26 30 35 37 36
47 48 48 47 45 45 42 37 36 32 26 27 27 26 23 23 25 24 28 29 30 30 29 26 25 22 22 23 23 23 22 23 24 24 21 20 33 33 29 33 37 38 38 38
47 47 49 48 46 45 41 34 33 34 32 31 32 31 31 30 28 26 31 31 32 33 30 28 26 22 23 22 18 26 23 24 23 24 24 33 36 35 37 37 36 38 39 39
45 47 47 49 47 47 39 36 36 33 30 28 29 28 31 32 32 33 29 31 32 33 33 30 27 24 23 19 20 23 26 27 25 26 27 31 35 36 37 37 37 38 39 39
45 46 47 47 48 46 39 36 36 32 27 23 25 30 30 32 33 33 33 32 33 33 32 32 30 26 27 22 24 24 25 28 26 26 28 32 34 35 36 38 37 38 38 38
45 47 47 50 49 46 40 38 37 33 25 25 24 29 31 31 31 32 33 32 32 32 31 30 29 30 30 28 28 24 26 25 25 20 26 29 30 34 36 37 37 38 37 37
45 47 50 49 48 42 38 33 38 35 34 32 27 29 30 29 30 31 31 32 32 31 31 29 29 30 31 27 24 24 25 25 27 26 29 31 34 35 36 35 36 36 36 36
45 46 49 48 45 41 35 33 37 38 36 30 28 25 30 29 30 31 31 30 31 30 31 29 28 29 31 29 24 19 25 27 29 32 34 33 35 34 36 36 36 36 36 36
44 45 48 47 44 41 39 39 41 38 31 28 31 27 26 30 27 27 32 29 29 29 28 27 26 29 30 28 24 22 25 28 31 33 34 33 35 35 35 36 36 35 35 34
45 46 46 43 40 37 38 42 39 39 34 31 28 27 25 29 28 28 30 30 26 29 25 24 26 22 27 25 20 24 27 30 32 34 34 35 34 34 34 34 33 33 33 32
45 44 40 35 38 41 41 37 35 33 34 32 28 25 26 27 26 27 28 29 28 27 26 27 25 23 25 24 25 24 28 32 34 33 32 33 33 33 32 32 32 32 31 27
41 38 37 39 42 39 36 34 32 31 29 29 28 25 26 29 26 27 27 29 29 25 26 25 26 24 26 24 25 26 31 34 34 33 33 32 31 32 31 31 29 26 24 22
40 38 40 39 36 33 31 29 30 29 26 27 27 27 29 29 30 29 28 27 26 22 26 25 23 25 27 25 24 27 32 33 33 32 32 31 31 31 28 23 23 22 22 23
40 36 33 33 33 28 26 24 27 27 30 30 29 26 28 28 30 28 27 24 22 24 24 22 21 25 25 26 28 30 33 33 31 30 29 26 25 23 22 20 21 22 22 24
35 31 28 29 28 28 30 30 33 31 32 30 30 28 28 29 27 27 24 24 24 22 21 22 25 27 26 28 31 32 32 32 30 27 25 23 21 20 21 23 23 24 23 23
32 32 28 29 31 33 34 33 30 29 32 31 29 29 28 27 27 26 24 21 20 20 21 27 31 28 28 30 32 32 32 30 28 27 26 25 25 25 25 25 24 24 24 24
33 32 31 30 32 32 29 32 32 32 31 31 33 27 25 25 26 22 21 19 19 27 30 34 31 30 31 32 32 31 29 26 24 24 24 24 24 25 26 26 25 25 25 25
32 31 33 32 34 34 31 31 30 31 29 30 28 24 24 25 23 21 25 24 32 34 29 28 31 31 31 32 30 28 25 23 23 23 24 24 24 24 22 22 24 25 26 25

GFSNW_sfc_dewp_126.txt.gz
Dewpoint
51 51 50 49 48 50 48 41 35 45 46 36 35 32 28 31 29 34 29 29 27 23 23 25 23 24 26 27 27 25 28 25 24 25 28 32 35 34 33 26 25 29 28 26
51 50 50 49 48 48 44 38 38 44 44 34 31 28 27 28 28 28 27 26 27 26 23 24 22 26 26 27 26 25 26 25 22 23 25 28 34 34 32 33 33 27 23 27
51 51 50 50 49 46 42 37 33 37 38 33 29 26 26 26 31 28 27 26 27 25 23 23 23 22 29 30 29 31 28 24 23 23 28 33 30 33 33 32 27 28 29 31
49 51 51 50 50 47 42 36 35 34 33 29 29 30 27 25 26 28 29 28 26 25 25 23 23 26 27 29 29 29 27 25 24 25 28 28 29 29 31 31 33 29 31 32
49 50 51 50 48 47 39 34 33 31 29 28 28 28 27 27 27 28 27 27 27 27 26 26 25 26 25 27 29 28 30 25 24 23 24 25 28 30 31 32 32 32 32 35
50 50 50 49 46 44 37 35 34 32 29 28 27 25 28 28 29 30 29 29 28 28 29 30 30 29 28 29 27 28 28 27 24 20 24 22 23 30 32 32 32 35 31 32
50 49 49 47 45 43 37 34 32 30 25 27 26 26 29 29 29 29 29 30 29 32 33 32 33 31 28 29 27 30 28 27 25 22 25 16 26 32 32 31 31 31 32 33
49 48 48 48 47 45 38 35 32 30 26 26 24 24 26 28 28 28 29 30 31 33 33 29 26 25 26 28 27 26 28 28 25 21 19 23 27 30 28 29 29 32 33 34
50 49 47 48 46 44 42 38 37 32 28 24 23 24 25 25 26 27 29 31 32 34 31 27 24 22 22 22 23 27 27 28 25 23 20 18 27 32 34 33 26 34 34 35
48 49 48 48 46 46 44 39 38 34 27 25 25 23 24 26 27 27 28 30 31 34 29 26 25 21 24 22 20 21 23 24 23 22 21 23 29 32 34 26 29 36 37 36
47 48 49 49 47 46 44 39 38 35 28 28 28 28 26 25 25 25 29 29 30 31 28 27 25 22 23 23 23 23 22 21 23 23 20 16 33 34 30 33 36 37 37 37
45 47 48 50 48 46 43 39 34 35 34 32 32 31 32 30 30 29 30 31 31 34 31 29 26 23 22 21 19 26 22 24 24 23 26 33 35 35 36 36 36 38 38 38
44 45 47 49 49 47 43 39 37 37 32 31 30 29 31 32 32 33 31 32 33 33 33 31 30 25 24 19 21 22 26 28 26 26 28 33 35 36 37 37 37 38 39 40
44 45 46 48 48 49 41 38 38 36 31 25 27 30 30 33 33 33 33 32 33 33 33 32 31 28 26 23 24 24 25 27 26 25 29 30 34 36 37 37 38 38 38 38
44 44 46 47 49 49 43 40 39 37 32 28 27 30 31 32 31 32 33 32 32 33 31 30 30 30 29 28 28 26 27 27 25 25 27 30 31 35 36 37 37 38 38 38
44 45 47 50 49 45 38 34 40 38 36 33 29 30 30 30 31 32 32 33 32 32 31 30 30 31 31 27 25 26 25 25 26 25 31 31 34 35 37 37 37 37 36 37
44 45 47 49 47 41 35 36 39 40 37 32 29 26 30 30 31 32 31 31 31 30 31 30 29 30 31 29 25 24 23 25 30 33 34 34 35 35 36 36 36 38 36 36
44 45 47 48 45 42 39 41 41 40 35 30 27 27 26 30 29 29 32 30 30 31 29 28 27 29 30 27 28 23 24 27 30 33 34 34 35 36 35 36 36 35 35 34
45 47 46 44 41 38 38 42 39 40 36 31 28 25 23 30 29 30 30 30 26 30 27 26 27 25 25 26 25 25 25 27 29 33 34 35 35 35 35 35 35 35 34 32
46 44 41 35 38 42 42 37 36 35 34 34 29 28 25 28 28 28 29 29 27 20 28 27 26 25 24 25 26 22 26 30 32 33 32 34 34 34 34 34 33 32 31 26
42 38 36 40 42 39 36 33 32 31 28 31 29 26 25 28 28 29 29 28 25 18 25 22 23 24 26 23 21 26 27 31 33 34 34 34 34 34 32 32 30 27 24 22
40 39 40 40 36 33 31 30 30 30 25 29 27 26 28 28 31 31 30 27 25 16 26 20 19 26 27 25 24 23 29 32 34 33 32 32 32 32 32 29 24 22 23 23
40 36 33 32 32 26 26 23 26 23 28 27 26 23 27 28 30 31 28 24 22 24 22 20 22 25 25 26 26 28 32 34 33 32 31 30 27 24 23 22 21 22 22 24
35 31 27 27 24 26 26 26 26 29 29 29 28 24 25 28 25 28 23 26 25 15 16 18 24 25 25 27 29 32 31 31 30 28 25 24 22 21 21 22 23 23 23 23
32 31 25 27 28 29 30 30 28 28 31 29 26 24 26 24 20 24 23 19 15 18 18 24 29 27 28 28 30 31 30 28 26 24 23 22 22 22 22 23 24 24 23 24
32 31 29 31 28 27 27 25 26 29 30 29 28 21 18 18 20 17 17 13 13 18 25 28 27 28 29 29 30 30 29 26 24 23 23 23 24 23 22 22 20 21 21 20
30 30 32 28 28 28 28 28 28 31 29 23 25 22 17 21 16 15 20 17 24 30 29 28 29 30 31 32 30 28 25 23 22 22 22 23 24 24 23 21 22 21 20 17

GFSNW_sfc_dewp_129.txt.gz
Dewpoint
51 52 50 50 48 49 45 39 29 39 44 30 30 25 27 33 32 34 30 29 27 24 26 22 18 18 21 29 27 25 28 24 21 23 30 35 34 34 35 29 26 27 27 26
50 50 50 50 49 47 40 35 34 40 41 23 25 27 29 30 30 28 27 28 28 25 22 21 22 26 28 29 27 26 26 22 18 18 24 30 34 34 33 33 33 27 24 27
51 51 51 51 50 47 40 36 31 33 35 31 25 25 26 26 30 29 29 27 28 26 23 21 21 22 28 29 29 31 28 24 23 20 28 33 28 32 34 31 28 28 29 30
49 51 51 50 49 48 39 33 29 32 26 27 28 27 26 26 26 28 28 27 27 26 24 24 24 26 26 29 29 29 27 25 23 24 28 29 29 30 31 32 33 29 31 31
50 51 51 50 48 48 35 30 30 31 27 28 27 27 26 26 27 28 27 27 27 28 26 26 25 26 26 27 29 24 29 25 25 23 25 27 27 30 31 31 32 35 33 33
51 50 50 48 48 43 32 32 32 30 28 27 25 24 27 28 28 29 29 28 28 29 30 30 30 31 29 28 27 27 26 25 25 17 25 24 20 28 30 30 31 33 31 35
50 50 49 49 49 46 34 31 31 28 24 26 24 25 27 27 28 28 29 30 30 31 33 33 32 31 31 28 28 29 27 27 26 20 22 13 22 31 31 31 31 33 34 34
50 49 48 48 46 46 35 34 30 28 25 25 23 23 24 26 27 27 29 30 30 32 33 28 26 26 26 28 28 27 29 27 23 19 13 21 26 30 30 30 29 34 34 35
48 50 48 48 47 47 39 36 35 30 25 22 23 22 25 24 23 26 28 31 31 33 30 27 23 20 21 21 24 27 26 28 24 23 19 17 25 32 33 33 26 35 35 36
47 48 49 49 47 47 42 38 36 33 25 24 25 22 23 25 25 26 28 30 30 33 29 25 23 20 24 21 20 23 23 24 22 23 19 22 29 32 33 25 25 36 37 37
46 47 48 49 48 47 41 38 36 33 27 26 27 26 24 24 25 24 28 28 29 30 26 26 25 22 22 20 22 22 21 20 21 22 19 14 33 33 30 31 36 37 36 37
45 46 47 48 49 46 42 37 35 35 32 29 32 31 31 29 29 28 29 30 29 32 29 29 27 23 22 21 18 25 19 23 22 22 23 31 33 34 35 36 37 37 37 37
44 45 45 47 49 47 43 39 36 35 31 29 29 28 31 32 32 33 27 31 32 33 32 30 29 25 24 20 20 21 25 27 24 24 26 32 35 36 36 36 37 39 39 39
44 44 45 46 48 48 43 37 38 34 31 23 23 30 29 32 33 33 33 32 32 32 33 30 29 28 27 23 22 24 24 26 25 25 27 29 34 36 36 37 38 38 38 38
44 44 45 46 47 48 45 40 38 37 29 25 26 29 31 32 32 32 33 32 31 31 29 28 28 30 29 28 27 25 26 26 24 22 26 28 29 36 37 37 37 38 38 37
45 45 45 48 50 49 39 34 39 38 35 28 25 29 29 30 31 32 32 32 32 31 30 29 30 31 29 26 24 27 27 27 27 24 29 30 32 36 38 37 37 38 37 38
45 45 46 49 46 39 35 35 37 39 36 29 25 26 29 30 30 31 32 30 30 30 29 29 28 29 30 27 24 25 26 26 26 29 34 33 35 35 37 37 37 38 36 36
45 44 46 49 44 42 39 40 41 39 34 30 19 24 24 30 27 28 32 30 30 29 28 29 26 28 29 26 26 25 23 24 30 33 32 34 35 36 36 36 36 35 35 35
45 47 47 44 41 38 38 41 40 40 35 31 26 20 18 29 27 29 29 30 28 29 27 27 27 25 25 26 25 26 27 26 30 33 33 35 35 35 35 35 35 34 34 33
47 44 41 34 39 43 41 37 34 35 35 34 28 27 22 27 26 25 26 28 26 18 26 27 25 25 26 25 24 25 26 27 31 32 31 33 34 35 34 34 34 35 33 29
40 37 35 40 42 38 35 32 32 32 29 32 29 26 23 27 22 23 28 21 23 15 21 23 20 23 26 24 24 23 25 28 31 31 33 34 35 35 34 33 32 30 26 25
39 39 40 39 35 33 31 29 30 30 26 26 23 23 25 26 29 24 25 21 22 16 25 22 17 23 26 26 26 24 25 28 32 34 34 34 35 34 33 31 27 24 23 24
40 36 33 31 31 26 25 20 23 24 24 24 23 21 25 27 28 25 20 21 20 23 20 19 20 21 23 25 25 26 27 31 33 33 34 34 33 32 30 25 23 22 23 25
34 31 26 26 24 26 26 23 22 26 24 24 23 18 22 26 26 23 20 21 21 19 16 15 21 23 24 25 26 31 31 32 32 32 31 30 29 25 23 22 22 23 24 24
32 31 24 25 26 24 25 26 26 26 28 26 22 21 22 20 16 24 19 20 16 16 14 21 24 28 27 27 27 28 27 29 28 27 26 24 23 23 22 23 24 24 24 24
32 31 28 28 27 22 22 22 23 24 28 25 23 16 20 16 18 19 16 9 9 13 21 23 24 27 28 29 30 29 28 26 26 25 23 22 22 22 22 22 22 22 23 22
31 29 31 27 24 26 26 24 25 30 27 18 19 17 15 17 15 18 14 12 17 21 23 23 25 27 29 30 30 29 26 24 23 23 22 22 23 23 22 21 21 21 21 19

GFSNW_sfc_dewp_135.txt.gz
Dewpoint
51 51 51 51 49 48 42 33 25 35 37 28 26 24 28 33 31 31 28 28 26 24 23 20 17 17 20 25 26 24 26 26 21 21 25 34 35 33 34 27 24 28 26 24
50 51 51 51 49 46 37 32 31 37 34 23 24 26 28 29 29 28 27 27 27 26 22 20 22 23 26 27 26 24 24 21 18 18 21 29 28 30 35 33 32 26 24 26
50 51 51 50 49 47 38 32 24 30 31 30 25 25 24 25 29 28 28 27 27 26 25 23 19 22 26 28 27 30 29 23 23 20 21 29 28 29 32 33 28 27 28 30
51 51 50 50 49 46 36 31 27 29 23 27 26 26 26 25 26 28 29 26 28 26 24 25 23 26 25 28 29 29 26 22 23 25 25 26 29 28 29 31 32 28 30 31
51 50 50 50 49 42 33 28 28 28 26 28 24 25 26 26 26 27 27 27 28 28 25 26 25 26 25 25 27 23 27 23 25 24 24 25 27 27 28 30 32 32 32 33
50 49 50 50 48 36 27 30 30 28 26 25 23 23 26 27 28 28 28 28 28 27 29 30 29 29 29 29 26 25 25 23 24 17 23 23 19 24 28 30 32 32 31 33
50 49 49 49 48 39 30 30 30 26 22 26 25 26 25 26 28 27 28 29 28 30 31 32 31 31 31 30 30 28 25 24 26 20 21 8 18 30 30 30 31 31 34 34
48 49 49 48 48 44 33 33 29 27 24 25 24 22 23 26 26 27 27 28 29 31 31 27 24 25 24 27 30 29 28 26 23 18 12 19 22 30 30 29 28 33 34 34
46 48 48 49 48 46 37 34 33 30 24 18 23 22 23 22 22 24 26 30 31 32 29 26 22 19 20 20 21 28 28 27 24 23 17 16 21 31 33 32 25 34 34 35
46 46 48 48 49 47 40 37 34 30 24 23 23 21 21 25 24 24 25 28 29 30 27 25 22 21 22 19 19 22 24 23 21 22 20 22 24 31 32 20 15 34 35 34
45 45 46 48 49 47 40 37 35 29 25 25 27 26 24 24 25 23 24 26 27 29 25 25 24 22 22 20 21 20 20 19 19 22 19 15 31 31 25 23 33 34 34 35
46 45 45 46 48 48 41 36 36 35 30 25 31 29 30 26 25 26 27 26 28 30 27 27 26 25 22 19 18 20 20 22 19 23 21 22 32 30 32 35 34 35 34 35
47 45 45 45 47 49 44 40 37 35 29 28 27 27 30 32 31 31 25 27 31 31 32 29 27 25 24 20 20 18 22 25 24 23 23 25 29 33 35 36 35 37 37 37
47 46 45 45 46 47 45 40 38 34 29 24 25 30 29 32 32 32 32 31 32 32 31 29 27 27 26 24 22 21 21 25 24 24 24 25 26 32 35 36 37 38 38 38
48 47 45 45 45 46 45 43 40 36 31 26 25 27 29 32 32 32 32 31 29 28 27 27 27 29 28 27 25 23 25 23 22 20 22 22 20 29 35 36 37 38 38 37
49 47 46 45 46 48 45 39 38 39 36 31 23 27 28 29 30 30 30 31 29 28 28 27 28 30 29 26 23 25 27 26 25 22 23 26 28 30 34 36 37 38 38 37
49 48 46 46 48 43 38 35 36 38 34 27 23 23 28 28 29 30 29 29 29 28 27 27 27 28 31 27 24 20 26 27 27 27 28 27 32 29 35 37 38 40 37 36
48 47 46 48 43 42 39 40 42 38 32 29 18 21 23 28 27 26 29 27 27 27 27 26 26 27 27 26 25 22 22 22 23 24 27 27 30 32 35 36 37 36 35 35
48 47 47 44 42 40 40 43 42 40 34 27 25 19 15 28 26 27 28 28 26 27 25 25 27 25 24 23 21 21 22 24 22 25 26 26 30 32 35 36 36 36 34 34
47 45 40 36 39 43 41 36 34 34 34 34 30 26 21 26 25 25 25 26 24 20 24 26 25 24 26 25 24 24 23 24 25 24 24 28 30 32 33 35 36 36 35 34
42 38 36 40 43 38 35 33 32 33 30 32 32 28 22 27 22 23 27 19 20 17 18 19 17 18 22 22 23 23 24 24 25 25 25 25 30 31 34 35 35 35 34 33
40 39 41 40 36 33 30 29 31 30 27 28 28 25 27 25 28 24 27 20 22 18 22 18 18 20 22 22 22 24 24 24 24 24 24 25 30 33 35 35 34 34 33 30
40 34 32 32 31 26 25 23 26 27 29 27 26 23 25 26 28 24 25 21 16 21 20 20 20 21 21 22 25 25 26 26 28 27 26 28 31 33 34 33 33 31 30 28
33 31 26 26 23 25 25 26 27 28 28 26 23 22 22 26 24 23 19 21 20 18 15 11 17 18 20 25 25 25 26 27 28 28 29 30 31 31 32 32 31 29 27 25
31 31 24 25 26 25 28 30 29 28 29 26 23 21 22 17 17 23 21 18 17 16 12 17 19 19 23 23 22 24 26 26 26 22 22 25 27 29 26 26 27 28 25 24
32 30 28 26 26 22 26 29 30 29 28 26 26 23 16 15 16 19 18 10 13 15 18 20 15 18 20 20 22 24 26 26 26 26 26 26 26 27 25 23 24 25 25 23
30 29 30 27 26 28 28 29 30 29 26 25 24 17 15 16 13 16 15 11 16 20 19 19 20 20 20 19 20 22 23 24 23 24 24 25 25 24 23 23 22 23 23 22

GFSNW_sfc_dewp_138.txt.gz
Dewpoint
51 51 52 51 50 47 40 31 25 35 36 28 25 23 28 33 31 29 28 28 27 24 23 20 16 17 19 23 26 23 26 25 21 22 24 31 33 33 33 27 23 27 25 24
50 52 52 51 50 46 36 31 31 36 32 22 24 27 27 28 28 27 27 26 27 26 23 20 22 22 25 26 26 23 24 21 19 18 21 28 28 29 32 34 33 26 23 26
51 52 51 50 49 47 37 30 24 30 31 29 24 24 24 25 28 28 28 26 27 26 25 23 20 22 25 28 27 30 29 23 22 18 19 26 25 26 29 33 26 27 28 30
52 51 50 49 48 45 35 30 26 28 23 26 25 26 25 25 25 27 29 26 27 26 24 24 23 25 26 27 29 29 27 21 23 24 24 25 25 25 27 27 31 28 30 31
51 50 50 49 48 41 32 27 27 28 26 26 23 24 25 26 26 27 26 27 27 28 25 25 23 26 25 24 26 23 26 23 24 24 25 25 24 26 28 28 31 32 32 32
50 50 49 50 48 34 26 30 30 27 25 24 23 23 25 26 28 27 28 27 27 26 28 29 29 28 28 28 25 24 24 22 23 20 23 23 18 23 26 29 31 31 29 32
48 50 49 49 49 36 29 30 30 26 22 26 25 26 24 26 27 27 28 29 27 29 31 32 30 30 30 29 29 29 24 23 25 22 21 4 16 28 29 29 31 31 32 33
46 48 49 49 48 41 33 32 28 26 20 24 24 24 23 24 25 26 27 27 29 31 30 27 24 24 24 26 29 29 28 25 22 20 15 19 21 28 29 28 27 32 32 34
45 47 48 48 48 45 36 34 32 29 21 17 23 22 23 22 20 23 25 29 31 31 29 26 21 17 20 19 21 28 28 26 22 22 17 14 16 28 32 31 22 33 34 33
45 46 46 48 49 46 39 36 33 29 23 23 23 20 20 24 24 23 24 26 28 30 27 25 22 21 21 19 18 22 23 23 22 21 20 22 25 30 31 16 13 33 34 33
46 45 46 46 48 48 41 37 35 29 25 25 25 24 23 24 25 21 22 25 26 28 25 25 24 22 22 19 20 19 21 19 19 21 18 14 28 30 23 19 31 33 34 34
48 46 45 46 47 48 42 36 36 34 29 30 29 29 28 25 25 25 26 25 26 29 26 26 26 26 21 19 17 19 19 20 18 22 21 23 30 29 31 33 33 34 33 35
49 47 46 45 46 49 44 40 37 34 29 28 26 27 30 31 31 29 23 27 30 30 31 28 27 25 25 20 20 17 21 24 23 23 20 24 25 29 33 34 34 35 35 36
50 48 46 45 46 47 46 42 38 33 30 26 27 30 29 31 32 32 30 30 32 31 30 28 27 26 27 24 22 21 20 24 23 23 24 24 25 27 29 33 36 36 36 36
51 49 47 46 46 46 46 43 40 36 33 29 27 27 29 31 31 31 31 31 29 28 27 27 26 28 27 27 25 22 24 23 20 17 20 20 19 23 30 33 35 36 37 36
51 49 48 47 47 47 44 40 40 40 35 30 26 27 27 28 30 30 29 30 28 27 27 25 26 27 28 24 23 25 26 25 24 21 25 24 25 28 31 33 35 37 37 37
51 49 48 47 47 46 40 34 36 39 34 28 24 22 28 28 29 29 29 29 28 28 27 26 26 27 30 25 22 19 24 26 27 27 27 26 27 26 27 33 35 38 37 36
51 49 47 47 45 42 40 40 41 37 31 29 22 24 21 28 27 26 28 27 27 27 27 26 26 27 27 25 25 25 24 23 23 23 26 27 27 31 31 33 35 36 35 35
50 47 47 45 43 40 40 43 42 39 32 26 26 24 18 28 26 27 28 27 25 27 25 25 27 25 24 23 21 22 23 22 22 23 24 25 25 26 28 32 34 35 35 34
48 45 40 35 40 44 42 38 35 34 34 34 30 26 21 26 26 26 25 27 25 20 24 26 25 24 26 25 26 25 24 24 24 23 23 23 25 27 28 31 34 36 36 35
42 38 36 40 43 39 36 32 31 33 30 32 32 28 24 27 23 24 26 19 21 17 17 22 18 17 22 23 24 23 23 24 24 24 25 25 24 24 26 30 33 36 35 34
40 39 40 40 35 32 30 29 31 30 28 30 29 28 29 27 27 24 26 20 23 17 21 21 18 20 22 21 21 21 23 24 25 26 26 27 26 25 26 29 32 34 35 33
40 35 32 32 31 26 26 20 25 27 30 28 27 26 27 27 28 24 25 20 17 21 20 19 19 21 21 21 22 23 23 25 26 27 28 29 29 29 30 31 32 33 32 32
34 31 26 28 24 25 24 24 27 29 29 28 27 25 27 27 26 24 19 21 20 18 16 13 17 18 20 20 23 22 21 24 25 27 27 27 29 29 30 32 32 31 30 29
31 31 27 27 26 24 27 28 28 29 30 27 26 25 26 24 22 24 20 17 16 17 15 18 19 19 19 21 20 20 22 22 21 19 20 23 24 25 25 27 29 30 29 28
31 30 30 27 26 19 26 28 28 30 29 29 29 24 22 21 21 20 17 14 14 20 20 21 15 18 19 21 22 22 23 24 25 25 24 26 26 25 23 20 23 26 27 27
30 30 32 27 25 27 27 29 29 30 28 28 26 22 21 20 12 14 18 16 23 22 20 21 20 21 21 22 18 19 21 22 23 24 25 25 24 20 20 22 22 23 25 26

GFSNW_sfc_dewp_141.txt.gz
Dewpoint
50 52 51 51 49 46 39 29 26 35 35 27 25 23 28 33 30 29 28 28 26 24 23 20 16 17 19 24 25 23 26 25 22 22 25 30 30 32 33 27 24 28 27 26
52 52 51 50 49 45 36 30 30 35 32 22 24 26 27 28 27 27 26 26 27 26 24 21 22 22 24 25 26 24 26 22 20 16 20 27 28 30 31 31 32 25 24 26
52 51 50 49 48 44 36 28 24 29 30 28 24 24 24 25 28 28 27 26 27 26 24 24 21 21 25 28 27 29 28 23 21 18 17 25 24 26 27 31 27 27 28 30
51 50 50 49 48 43 34 29 26 28 22 26 24 25 25 24 25 26 28 26 27 26 24 24 23 25 26 27 29 30 27 22 23 23 24 24 25 26 26 26 27 27 28 31
50 50 49 50 47 38 32 28 27 27 25 26 22 24 25 25 25 26 25 26 27 27 25 24 24 25 25 24 26 23 26 23 25 24 25 26 24 25 25 27 28 31 31 31
49 50 50 50 47 33 27 30 30 27 25 24 22 23 25 26 28 27 28 27 27 26 26 28 29 28 28 26 26 24 24 22 23 18 23 24 17 20 25 27 30 30 28 31
47 49 50 49 47 35 29 29 29 25 19 25 25 26 25 25 26 27 28 28 27 28 31 31 29 29 29 29 28 28 24 23 25 22 20 3 15 27 28 28 29 31 32 32
46 47 49 49 48 40 33 32 27 25 17 24 23 24 24 23 24 26 28 28 29 30 30 27 24 22 24 26 28 28 28 25 23 21 19 16 20 26 28 27 24 31 31 32
46 46 47 48 48 42 35 33 31 28 21 21 24 22 22 21 19 21 24 29 30 30 29 26 20 16 19 19 22 28 28 27 24 23 17 12 10 28 32 30 20 30 33 33
48 46 47 47 48 45 39 35 32 29 23 23 23 21 18 24 23 22 23 25 28 29 27 25 22 20 21 18 17 23 26 26 24 22 21 21 23 31 31 15 10 33 35 34
48 47 46 46 47 48 41 36 34 29 25 25 24 24 23 24 24 21 20 23 25 28 25 24 24 22 22 19 19 20 21 20 21 22 20 14 28 31 24 17 30 33 34 35
50 48 46 46 46 48 43 37 35 33 30 32 28 27 28 25 25 24 25 23 25 28 26 26 26 26 21 19 17 19 19 21 18 21 20 22 28 30 30 30 31 34 34 35
51 49 47 46 46 47 45 40 36 35 30 30 28 27 29 31 30 28 22 25 29 29 30 27 27 25 25 20 20 18 21 23 22 22 21 23 24 25 29 32 33 34 35 35
52 50 48 47 46 47 46 41 38 34 30 27 28 30 28 31 31 31 28 29 31 30 30 28 27 26 26 23 22 21 20 23 21 22 21 19 21 25 26 27 33 34 35 36
52 52 50 48 48 47 47 44 40 36 34 29 29 28 29 31 31 31 31 30 29 28 27 26 26 27 26 25 24 22 23 21 19 17 18 18 19 22 28 30 31 34 35 36
52 51 50 48 48 47 43 40 41 40 36 32 29 28 28 28 30 30 29 29 28 27 26 25 26 27 27 23 21 23 25 24 24 20 23 23 23 25 27 30 30 33 36 36
52 52 50 49 48 45 41 36 36 41 36 32 27 24 28 29 29 29 29 29 28 27 26 26 25 26 29 25 21 19 24 26 26 26 26 25 25 25 26 28 30 34 36 36
52 52 50 48 47 45 41 40 42 37 32 28 23 24 21 29 27 26 29 28 27 28 27 26 25 26 26 24 25 21 22 24 22 22 25 24 25 26 25 27 30 33 34 35
51 51 48 45 43 40 41 43 42 40 33 28 27 25 23 28 27 28 28 28 25 27 25 25 26 24 23 23 21 21 22 20 21 24 24 24 24 24 25 25 26 31 31 34
49 45 40 35 41 44 42 39 34 34 34 34 29 27 22 26 26 27 26 28 25 21 24 26 25 23 25 25 25 24 25 25 24 22 21 23 23 24 25 25 26 27 29 33
42 38 36 41 43 39 37 32 30 32 30 32 32 28 24 27 25 26 27 22 24 17 17 23 21 21 23 24 24 25 25 24 23 24 24 24 24 25 25 25 26 28 31 34
41 39 40 39 35 32 30 29 31 30 28 32 30 29 29 27 28 27 26 22 23 16 21 21 18 21 22 20 20 21 21 23 23 24 25 26 28 28 27 26 26 27 31 33
40 35 31 32 31 26 25 21 24 27 29 30 28 26 27 28 29 27 26 20 18 22 20 18 20 21 20 21 21 21 23 23 24 25 27 28 28 29 29 29 29 29 30 32
34 30 26 29 27 27 26 23 24 28 28 29 29 27 27 27 27 26 21 23 20 16 14 15 21 21 22 22 22 22 20 21 23 25 26 27 27 27 28 29 29 30 30 30
32 31 27 27 28 24 23 25 26 27 30 29 26 27 27 25 25 25 21 18 15 16 16 23 23 20 19 21 22 21 22 21 18 17 18 21 22 23 24 26 27 28 29 29
32 30 30 30 27 21 23 23 26 29 29 30 30 24 24 24 23 20 18 13 13 20 25 26 18 19 21 22 22 22 22 22 23 24 23 25 25 25 24 22 21 23 24 25
30 29 32 30 26 28 27 29 28 30 29 28 28 23 23 22 16 16 20 17 24 28 27 24 22 23 23 23 22 22 22 21 22 22 24 25 24 19 19 22 24 21 22 22

GFSNW_sfc_dewp_144.txt.gz
Dewpoint
52 51 51 49 48 45 39 34 36 38 37 35 31 31 28 33 31 31 28 29 26 24 24 25 25 26 27 24 25 23 26 26 24 23 26 28 29 31 30 28 25 29 28 30
52 51 50 50 47 43 38 35 35 37 36 35 30 28 28 29 28 28 27 26 27 26 24 24 24 24 24 24 26 24 26 25 22 20 24 28 28 31 31 28 32 28 27 32
51 50 50 50 48 43 37 31 38 34 33 30 27 26 25 26 29 28 28 27 27 26 25 25 23 23 26 28 26 29 29 26 22 17 18 24 22 23 28 26 27 29 31 34
51 51 50 50 48 42 36 32 32 31 34 28 27 27 26 24 23 27 28 27 27 26 24 24 24 25 26 28 29 31 30 25 24 24 24 24 24 25 25 28 29 28 34 32
49 50 50 50 48 37 34 31 30 29 28 28 26 25 25 25 25 26 24 26 27 28 26 24 22 26 26 25 29 30 29 25 26 23 24 25 25 25 25 25 26 26 27 30
47 49 51 50 48 35 31 33 32 28 26 26 25 24 25 26 28 28 28 28 27 26 26 27 28 29 28 28 27 27 27 26 24 24 22 22 19 21 23 25 27 27 26 28
47 47 49 50 48 36 32 30 31 26 19 24 24 26 26 25 26 26 28 29 28 28 30 31 30 30 29 29 28 28 26 25 24 24 22 11 18 26 27 26 26 27 29 29
46 46 48 48 48 40 35 33 29 25 24 21 23 25 25 25 24 26 28 28 29 31 31 26 23 22 25 27 29 29 28 26 24 23 21 18 18 24 24 26 21 26 29 30
48 46 46 47 48 42 37 35 34 30 26 25 22 22 24 21 20 22 25 29 31 32 29 25 20 17 20 20 25 29 29 28 26 22 21 14 10 27 32 31 20 27 31 31
50 48 47 46 47 46 42 38 35 31 28 26 24 22 20 24 24 22 24 27 30 32 26 24 22 18 24 19 18 24 26 27 24 22 20 20 22 29 32 18 12 28 33 33
51 49 48 46 47 48 44 40 36 32 31 31 25 25 24 25 25 23 24 26 28 29 25 24 23 24 24 22 21 23 23 23 22 21 20 18 25 32 26 19 28 32 34 34
52 51 49 47 46 48 45 41 37 34 34 34 30 27 26 26 27 26 27 25 29 30 26 26 27 25 26 22 13 21 20 22 19 22 19 23 28 30 31 30 31 31 34 34
52 51 50 48 46 47 46 42 37 37 35 34 30 30 31 31 30 28 24 27 30 31 32 31 29 26 26 21 21 21 22 22 21 21 18 23 23 24 24 25 26 28 31 34
53 52 51 49 47 47 48 43 39 38 34 31 29 29 29 32 32 30 29 30 33 33 33 32 30 26 27 21 21 21 17 22 19 21 20 20 20 21 23 25 29 29 31 33
52 52 52 50 49 48 48 45 40 39 35 32 32 31 30 32 31 31 32 33 32 32 28 28 27 29 28 27 27 24 22 19 15 13 15 14 14 20 26 27 28 29 30 32
52 52 52 51 49 48 44 39 43 39 39 36 32 30 30 31 31 31 31 31 30 29 27 26 28 28 27 23 19 20 24 22 21 16 20 20 22 25 25 25 26 28 31 33
52 52 52 51 49 45 40 36 38 41 38 35 32 28 29 30 30 31 31 31 30 28 27 26 25 27 29 25 19 16 20 23 23 24 24 24 23 20 24 26 27 29 29 31
52 52 52 50 49 45 41 42 44 40 36 32 30 27 23 30 28 28 31 30 30 30 27 28 27 27 29 26 24 19 19 22 24 25 26 24 23 23 24 25 25 25 25 27
52 52 51 46 43 40 41 44 43 42 38 33 30 28 29 29 28 29 29 30 27 28 26 26 27 24 25 23 20 20 23 22 21 23 23 24 24 24 24 25 25 25 25 26
50 45 41 36 41 45 42 39 35 35 35 34 30 28 25 28 27 27 28 29 26 24 24 27 25 24 24 24 25 23 22 24 24 23 22 23 24 24 24 25 25 26 26 26
43 38 36 42 44 40 38 32 30 31 30 32 31 29 25 28 26 27 27 26 26 21 22 24 23 22 25 24 24 24 25 25 24 25 24 23 23 23 24 26 27 27 27 27
41 39 41 40 36 33 31 30 32 31 28 33 32 31 30 27 29 28 27 25 24 21 23 22 19 21 23 22 21 24 25 25 25 24 23 23 24 25 28 29 29 29 29 29
40 35 31 32 31 27 27 25 27 28 31 33 30 28 28 27 29 28 27 23 21 22 21 19 20 23 21 22 23 21 21 23 23 23 25 26 28 29 30 30 31 31 31 31
34 31 27 29 28 29 30 28 29 32 32 31 31 29 29 28 28 27 24 24 22 19 17 18 20 22 23 22 23 23 23 24 25 26 27 28 29 29 29 30 30 31 31 32
32 31 28 28 31 30 31 30 30 30 33 31 29 29 28 28 27 27 25 20 18 18 18 24 28 25 23 26 24 25 26 28 28 28 28 29 29 29 29 29 29 30 30 31
33 31 31 33 30 30 27 29 29 32 31 31 32 27 26 26 27 23 21 19 17 23 25 30 30 27 26 26 26 25 25 26 26 26 26 26 28 28 30 29 29 29 29 29
31 30 33 33 31 33 31 29 30 31 29 29 30 24 24 27 24 22 24 21 25 28 29 29 30 29 28 28 27 28 27 27 26 26 26 26 27 27 26 27 29 28 29 27

GFSNW_sfc_dewp_147.txt.gz
Dewpoint
52 51 50 51 48 46 42 36 37 40 39 35 33 32 26 32 29 31 29 28 24 22 21 24 28 28 29 23 25 24 25 26 25 21 26 27 28 30 28 28 28 29 28 29
52 51 50 51 49 45 40 32 33 40 39 38 29 28 28 29 28 27 26 25 26 25 23 23 23 24 24 25 26 24 26 26 23 22 25 27 26 30 29 27 29 27 27 33
50 51 51 50 49 44 39 31 40 35 33 31 25 24 25 26 30 27 27 25 26 25 23 24 22 22 26 28 26 29 28 25 21 16 17 21 22 22 26 27 26 28 31 32
49 50 50 50 49 41 39 32 32 31 36 27 26 26 24 23 24 27 28 26 26 24 23 22 22 23 25 29 29 30 30 25 21 22 22 22 23 23 23 26 28 29 33 33
47 49 50 50 49 40 35 32 31 29 27 27 25 26 25 24 24 25 24 26 24 26 24 22 21 23 24 25 29 31 29 24 22 22 21 23 24 24 23 24 25 26 27 28
47 47 50 50 48 43 33 33 33 30 28 24 22 22 22 24 27 26 27 26 26 24 25 26 25 26 26 26 26 27 26 25 22 23 21 21 19 19 19 21 23 24 24 25
48 47 48 49 47 40 35 31 31 29 24 23 23 24 24 24 26 24 25 28 27 28 30 29 28 29 27 27 26 27 24 25 23 23 21 18 19 24 24 23 22 23 24 25
50 47 46 48 47 41 38 35 32 30 26 24 23 24 25 24 25 25 26 26 27 30 29 26 21 23 26 27 28 27 27 25 23 22 21 18 17 22 21 22 18 21 23 23
52 49 46 46 48 43 41 37 36 33 29 26 24 22 23 24 22 22 24 28 30 32 27 23 20 18 16 18 26 29 28 27 25 22 19 14 12 27 30 30 22 23 24 22
53 50 48 46 47 46 44 41 38 34 31 29 24 23 24 23 23 24 24 26 31 32 24 22 20 15 22 17 17 24 25 27 24 22 20 19 19 29 31 18 16 24 26 26
53 52 50 48 47 47 45 42 39 36 33 32 28 26 24 25 25 25 27 27 28 28 24 21 21 20 20 21 18 22 22 22 22 22 19 17 24 29 23 21 25 27 29 30
53 53 51 49 47 48 46 40 39 36 36 35 33 31 28 26 27 28 28 27 29 28 25 24 23 21 22 18 12 20 18 19 18 20 20 21 25 25 29 29 29 27 27 27
53 53 52 50 48 47 48 43 40 39 36 35 34 32 33 32 28 28 26 27 29 31 33 30 25 23 22 18 19 16 19 19 21 18 18 20 21 23 25 23 22 23 26 27
53 53 53 52 49 47 48 44 41 40 37 31 31 29 29 32 32 30 28 28 32 34 33 29 27 23 24 19 19 20 17 21 19 18 18 19 20 20 21 20 24 28 28 28
53 53 53 52 51 48 48 47 42 42 36 33 33 33 31 31 32 31 31 29 30 30 29 28 26 26 27 25 24 23 21 18 17 14 14 13 13 19 22 23 25 24 24 26
52 52 52 52 51 49 45 39 45 41 40 36 33 32 30 31 31 31 31 31 30 30 28 27 26 27 27 24 21 20 22 21 20 16 17 17 18 21 23 24 25 25 26 28
52 52 52 52 50 46 39 36 40 42 41 36 33 33 30 31 31 31 31 31 29 28 26 24 24 25 29 25 21 19 19 20 23 21 20 22 22 19 22 23 24 26 24 25
52 52 52 52 50 46 42 43 43 42 38 35 32 32 26 30 29 28 31 29 29 29 26 27 26 26 27 25 24 21 20 19 19 21 22 22 19 23 22 23 24 25 25 25
52 52 52 48 44 40 41 45 44 43 40 33 32 31 33 30 29 29 30 30 27 28 27 25 25 23 25 23 21 21 22 22 20 22 23 24 24 23 23 23 25 25 25 26
51 46 42 36 41 45 43 40 36 36 37 34 31 31 29 28 28 27 28 30 27 25 25 26 25 23 24 23 24 23 22 22 23 23 24 24 24 24 23 23 23 25 26 26
44 39 37 42 44 41 38 33 31 33 30 32 32 31 29 29 28 29 29 30 28 24 24 24 25 23 23 23 23 24 25 24 24 24 23 23 23 23 22 22 25 27 28 28
43 40 41 41 37 33 32 31 32 31 27 32 31 31 31 29 31 30 30 28 27 23 25 23 21 23 24 23 22 21 24 24 23 23 23 24 24 23 23 24 28 29 30 30
41 36 32 32 31 28 29 27 29 29 32 34 32 29 29 28 29 30 29 26 24 23 22 19 19 23 23 23 24 22 24 25 25 24 25 25 25 25 27 29 30 30 30 31
35 32 28 29 29 29 33 32 34 35 36 33 32 30 29 29 28 30 26 27 25 21 19 20 23 23 24 23 24 23 24 25 25 26 25 26 28 29 29 30 30 30 30 32
32 31 29 30 33 36 34 35 34 33 35 33 31 31 30 29 29 29 28 23 20 21 22 27 28 27 26 28 27 26 27 29 29 31 31 31 31 31 31 31 31 31 31 31
33 31 31 34 33 35 32 33 34 35 34 33 34 29 28 28 29 26 24 22 21 26 27 30 34 32 30 30 29 26 26 27 27 28 28 29 29 29 30 32 32 31 30 30
33 31 34 34 35 36 37 33 33 34 32 31 32 27 26 31 26 25 28 26 29 32 30 30 32 34 33 33 32 31 30 28 28 27 26 26 27 29 29 28 29 31 31 30

GFSNW_sfc_dewp_150.txt.gz
Dewpoint
52 51 51 51 49 47 45 41 40 43 42 38 37 32 29 30 28 33 31 30 26 23 22 25 26 27 29 26 27 25 27 26 24 25 27 28 34 31 29 21 25 24 24 23
50 51 51 51 50 45 44 36 35 44 42 38 31 30 28 31 29 29 28 26 28 26 23 23 25 26 27 26 26 25 26 26 20 22 23 26 25 29 29 28 29 21 19 23
50 50 51 51 50 44 43 37 39 40 36 33 29 26 27 28 33 29 28 26 27 25 24 25 23 23 29 29 28 30 28 25 23 16 18 23 21 25 27 27 26 20 24 24
49 49 50 50 50 45 42 36 34 33 37 29 27 28 27 26 26 29 29 27 26 25 23 22 22 24 26 30 31 29 30 24 24 23 22 22 22 22 23 23 25 21 21 26
49 48 50 51 50 48 41 36 33 31 27 27 26 27 26 26 25 26 25 26 25 25 24 23 22 23 23 25 30 26 30 24 24 22 22 22 22 23 23 23 23 24 25 25
50 48 49 50 49 47 39 36 35 32 30 26 23 25 24 26 28 27 27 27 26 26 26 28 27 27 26 26 26 28 27 25 22 18 23 22 20 22 21 22 23 24 23 25
52 49 47 48 48 45 41 35 35 32 27 25 25 26 25 25 27 26 26 29 27 29 30 29 27 26 27 27 25 27 25 24 23 20 22 13 20 25 27 22 22 22 23 24
53 50 47 47 48 47 43 38 36 34 29 27 25 25 26 26 25 26 25 26 28 30 28 27 23 23 25 27 27 27 26 25 22 19 17 20 19 22 19 20 20 22 22 23
53 52 48 46 47 46 45 40 38 37 32 28 26 24 24 24 25 24 26 29 30 31 30 24 21 20 18 23 26 29 27 26 23 23 17 16 19 24 29 30 22 24 23 23
53 53 50 48 47 47 46 43 39 38 34 32 26 24 26 26 24 25 25 27 30 32 28 24 22 18 21 18 19 23 24 26 24 21 20 20 21 30 31 18 16 24 26 27
53 53 52 50 48 48 46 44 41 39 36 34 29 29 26 26 27 26 28 27 29 30 26 23 23 20 21 21 20 23 22 21 21 21 19 16 26 31 22 22 26 26 26 28
53 53 53 51 49 48 47 43 40 37 37 36 35 33 32 29 29 29 29 28 28 29 26 25 24 22 22 20 15 22 19 22 21 22 22 24 28 27 30 29 29 29 24 25
53 53 53 52 50 48 48 44 40 39 38 36 36 35 35 34 28 29 28 29 29 31 34 32 28 24 23 19 20 18 19 20 19 20 20 21 21 23 25 25 26 26 24 26
53 54 53 53 52 50 48 44 42 41 39 32 32 30 30 32 33 31 30 30 32 34 33 30 28 25 25 22 22 21 20 20 19 19 19 19 19 19 19 21 24 25 28 28
53 53 53 53 52 50 48 47 43 42 37 34 34 34 31 31 32 32 32 30 29 30 29 30 28 28 26 27 26 23 22 19 19 16 17 16 15 18 23 22 24 27 26 25
52 52 52 52 52 50 45 40 45 43 41 35 32 33 30 31 32 31 31 32 31 31 30 30 30 28 26 25 24 23 23 21 20 19 19 18 19 21 23 24 25 26 25 27
52 52 52 52 51 46 40 38 42 44 42 36 32 34 30 31 31 32 32 31 31 31 30 28 27 27 28 27 22 22 21 22 23 22 21 21 22 20 23 24 26 28 26 25
52 52 52 52 51 47 42 43 44 43 39 36 31 32 27 31 30 30 33 30 30 29 28 27 26 27 28 25 24 24 23 23 22 21 23 22 21 22 23 23 24 24 25 25
51 51 52 48 44 40 41 45 44 43 40 33 31 31 32 30 30 30 30 31 28 30 28 27 27 25 24 24 23 24 24 23 22 22 22 23 23 23 24 24 24 24 25 26
51 47 43 36 41 46 44 41 37 37 37 35 31 33 30 29 28 28 29 30 28 26 27 26 27 25 26 25 25 25 24 23 24 23 22 23 23 23 25 24 23 25 25 26
44 39 36 42 45 41 38 33 31 32 30 32 32 32 29 30 28 28 29 29 28 23 24 23 23 23 24 25 25 25 25 25 24 24 23 24 24 24 23 23 24 24 27 28
43 40 42 41 37 34 32 30 32 30 28 30 30 31 32 30 32 32 30 28 28 21 25 23 20 23 25 26 25 24 23 24 24 24 24 23 24 24 24 23 24 27 29 30
41 36 32 32 32 26 26 26 29 29 30 31 31 30 29 29 31 31 29 25 24 24 22 20 20 23 23 24 24 24 24 24 25 25 24 25 25 25 24 24 28 29 30 30
35 31 27 28 28 28 28 28 29 31 31 32 32 28 28 29 28 30 25 27 26 20 20 18 24 24 24 25 25 24 24 25 26 27 26 26 27 26 26 28 29 30 30 30
32 31 27 28 29 32 31 31 31 30 33 33 31 31 30 29 28 29 28 23 20 19 19 25 28 27 26 25 25 26 26 27 27 28 29 29 28 28 29 30 31 30 30 30
33 32 29 30 32 31 30 29 29 32 34 33 33 30 28 27 28 26 24 21 16 21 27 30 31 30 30 28 26 27 27 26 27 27 27 28 29 29 29 28 29 30 30 29
31 29 32 31 30 31 31 31 32 35 33 30 31 27 25 30 26 25 27 21 25 30 29 29 30 30 30 33 32 31 30 29 27 27 27 26 27 28 28 27 28 30 30 30